• In Netherlands
  • List of Countries
  • For 7 days
  • Water Temperature
  • Satellite Maps
  • Weather Map
  • Weather Widgets
  • user-avatar
    Login

    Hourly Weather Razgrad

    Today, 23 February, Thursday

    Time Temperature Precipitation Wind Pressure Humidity
    00:00 +4°C° 0 mm 3 mps 740 mmHg 81%
    01:00 +4°C° 0 mm 3 mps 740 mmHg 81%
    02:00 +5°C° 0 mm 3 mps 739 mmHg 80%
    03:00 +5°C° 0 mm 3 mps 739 mmHg 80%
    04:00 +4°C° 0 mm 3 mps 738 mmHg 80%
    05:00 +4°C° 0 mm 3 mps 738 mmHg 80%
    06:00 +4°C° 0 mm 3 mps 738 mmHg 79%
    07:00 +5°C° 0 mm 3 mps 739 mmHg 77%
    08:00 +5°C° 0 mm 3 mps 739 mmHg 76%
    09:00 +7°C° 0 mm 4 mps 739 mmHg 72%
    10:00 +10°C° 0 mm 4 mps 739 mmHg 68%
    11:00 +12°C° 0 mm 4 mps 739 mmHg 63%
    12:00 +13°C° 0 mm 5 mps 739 mmHg 61%
    13:00 +14°C° 0 mm 5 mps 739 mmHg 58%
    14:00 +15°C° 0 mm 5 mps 739 mmHg 56%
    15:00 +14°C° 0 mm 5 mps 739 mmHg 60%
    16:00 +13°C° 0 mm 4 mps 739 mmHg 65%
    17:00 +12°C° 0 mm 3 mps 739 mmHg 69%
    18:00 +11°C° 0 mm 3 mps 739 mmHg 72%
    19:00 +10°C° 0 mm 2 mps 739 mmHg 76%
    20:00 +8°C° 0 mm 2 mps 739 mmHg 79%
    21:00 +8°C° 0 mm 2 mps 739 mmHg 80%
    22:00 +8°C° 0 mm 2 mps 739 mmHg 80%
    23:00 +8°C° 0 mm 2 mps 739 mmHg 81%

    Tomorrow, 24 February, Friday

    Time Temperature Precipitation Wind Pressure Humidity
    00:00 +7°C° 0 mm 2 mps 739 mmHg 83%
    01:00 +7°C° 0 mm 2 mps 739 mmHg 84%
    02:00 +7°C° 0 mm 2 mps 739 mmHg 85%
    03:00 +6°C° 0 mm 2 mps 738 mmHg 86%
    04:00 +6°C° 0 mm 2 mps 738 mmHg 87%
    05:00 +6°C° 0 mm 2 mps 738 mmHg 88%
    06:00 +6°C° 0 mm 2 mps 738 mmHg 88%
    07:00 +5°C° 0 mm 3 mps 738 mmHg 88%
    08:00 +5°C° 0 mm 3 mps 738 mmHg 88%
    09:00 +8°C° 0 mm 3 mps 738 mmHg 81%
    10:00 +10°C° 0 mm 3 mps 738 mmHg 74%
    11:00 +12°C° 0 mm 3 mps 738 mmHg 67%
    12:00 +14°C° 0 mm 3 mps 738 mmHg 62%
    13:00 +16°C° 0 mm 3 mps 738 mmHg 58%
    14:00 +17°C° 0 mm 3 mps 737 mmHg 53%
    15:00 +16°C° 0 mm 3 mps 737 mmHg 58%
    16:00 +15°C° 0 mm 2 mps 737 mmHg 62%
    17:00 +14°C° 0 mm 2 mps 737 mmHg 66%
    18:00 +13°C° 0 mm 2 mps 737 mmHg 71%
    19:00 +11°C° 0 mm 3 mps 737 mmHg 75%
    20:00 +10°C° 0 mm 3 mps 737 mmHg 80%
    21:00 +9°C° 0 mm 3 mps 737 mmHg 82%
    22:00 +9°C° 0 mm 3 mps 737 mmHg 84%
    23:00 +8°C° 0 mm 3 mps 737 mmHg 87%

    Day after tomorrow, 25 February, Saturday

    Time Temperature Precipitation Wind Pressure Humidity
    00:00 +8°C° 0 mm 3 mps 737 mmHg 87%
    01:00 +8°C° 0 mm 3 mps 736 mmHg 87%
    02:00 +7°C° 0 mm 3 mps 736 mmHg 87%
    03:00 +7°C° 0 mm 3 mps 736 mmHg 87%
    04:00 +7°C° 0 mm 3 mps 736 mmHg 87%
    05:00 +7°C° 0 mm 3 mps 736 mmHg 87%
    06:00 +7°C° 0 mm 3 mps 737 mmHg 87%
    07:00 +8°C° 0 mm 3 mps 737 mmHg 87%
    08:00 +8°C° 0 mm 3 mps 738 mmHg 87%
    09:00 +8°C° 0.6 mm 3 mps 738 mmHg 88%
    10:00 +6°C° 0.6 mm 4 mps 739 mmHg 89%
    11:00 +6°C° 0.6 mm 4 mps 740 mmHg 89%
    12:00 +6°C° 0.6 mm 4 mps 740 mmHg 89%
    13:00 +5°C° 0.6 mm 4 mps 740 mmHg 88%
    14:00 +5°C° 0.6 mm 4 mps 741 mmHg 88%
    15:00 +4°C° 0.6 mm 4 mps 742 mmHg 88%
    16:00 +4°C° 0.6 mm 4 mps 742 mmHg 89%
    17:00 +3°C° 0.6 mm 3 mps 743 mmHg 89%
    18:00 +3°C° 0.4 mm 3 mps 744 mmHg 90%
    19:00 +3°C° 0.4 mm 3 mps 745 mmHg 90%
    20:00 +3°C° 0.4 mm 2 mps 746 mmHg 90%
    21:00 +3°C° 0.2 mm 2 mps 746 mmHg 90%
    22:00 +3°C° 0.2 mm 2 mps 747 mmHg 90%
    23:00 +3°C° 0.2 mm 2 mps 748 mmHg 89%

    26 February, Sunday

    Time Temperature Precipitation Wind Pressure Humidity
    00:00 +3°C° 0.1 mm 2 mps 748 mmHg 88%
    01:00 +2°C° 0.1 mm 2 mps 749 mmHg 87%
    02:00 +2°C° 0.1 mm 2 mps 749 mmHg 85%
    03:00 +2°C° 0 mm 2 mps 749 mmHg 85%
    04:00 +1°C° 0 mm 2 mps 749 mmHg 84%
    05:00 +1°C° 0 mm 2 mps 749 mmHg 84%
    06:00 +1°C° 0 mm 2 mps 749 mmHg 82%
    07:00 +1°C° 0 mm 2 mps 750 mmHg 81%
    08:00 +1°C° 0 mm 3 mps 750 mmHg 79%
    09:00 +2°C° 0 mm 3 mps 750 mmHg 74%
    10:00 +3°C° 0 mm 4 mps 750 mmHg 70%
    11:00 +4°C° 0 mm 4 mps 750 mmHg 66%
    12:00 +5°C° 0 mm 4 mps 749 mmHg 65%
    13:00 +6°C° 0 mm 4 mps 749 mmHg 64%
    14:00 +6°C° 0 mm 4 mps 748 mmHg 63%
    15:00 +6°C° 0 mm 4 mps 748 mmHg 66%
    16:00 +6°C° 0 mm 4 mps 747 mmHg 69%
    17:00 +5°C° 0 mm 3 mps 747 mmHg 72%
    18:00 +4°C° 0 mm 3 mps 747 mmHg 77%
    19:00 +3°C° 0 mm 3 mps 747 mmHg 81%
    20:00 +2°C° 0 mm 3 mps 746 mmHg 85%
    21:00 +2°C° 0 mm 3 mps 746 mmHg 86%
    22:00 +1°C° 0 mm 3 mps 746 mmHg 86%
    23:00 +2°C° 0 mm 2 mps 746 mmHg 87%

    27 February, Monday

    Time Temperature Precipitation Wind Pressure Humidity
    00:00 +2°C° 0 mm 2 mps 746 mmHg 87%
    01:00 +2°C° 0 mm 2 mps 745 mmHg 88%
    02:00 +2°C° 0 mm 2 mps 745 mmHg 88%
    03:00 +3°C° 0 mm 1 mps 744 mmHg 89%
    04:00 +3°C° 0 mm 1 mps 744 mmHg 89%
    05:00 +3°C° 0 mm 1 mps 744 mmHg 89%
    06:00 +3°C° 0 mm 1 mps 744 mmHg 88%
    07:00 +4°C° 0 mm 1 mps 744 mmHg 87%
    08:00 +4°C° 0 mm 1 mps 744 mmHg 86%
    09:00 +6°C° 0 mm 1 mps 744 mmHg 80%
    10:00 +8°C° 0 mm 1 mps 744 mmHg 74%
    11:00 +9°C° 0 mm 0 mps 744 mmHg 68%
    12:00 +10°C° 0 mm 0 mps 744 mmHg 66%
    13:00 +11°C° 0 mm 0 mps 743 mmHg 64%
    14:00 +11°C° 0 mm 0 mps 743 mmHg 62%
    15:00 +12°C° 0 mm 1 mps 743 mmHg 66%
    16:00 +11°C° 0 mm 1 mps 743 mmHg 70%
    17:00 +11°C° 0 mm 1 mps 743 mmHg 74%
    18:00 +10°C° 0 mm 1 mps 743 mmHg 77%
    19:00 +9°C° 0 mm 1 mps 743 mmHg 81%
    20:00 +7°C° 0 mm 2 mps 743 mmHg 85%
    21:00 +6°C° 0 mm 2 mps 743 mmHg 86%
    22:00 +6°C° 0 mm 2 mps 743 mmHg 87%
    23:00 +6°C° 0 mm 2 mps 743 mmHg 89%

    28 February, Tuesday

    Time Temperature Precipitation Wind Pressure Humidity
    00:00 +5°C° 0 mm 2 mps 743 mmHg 89%
    01:00 +5°C° 0 mm 2 mps 743 mmHg 90%
    02:00 +5°C° 0 mm 2 mps 742 mmHg 90%
    03:00 +5°C° 0 mm 2 mps 742 mmHg 91%
    04:00 +4°C° 0 mm 2 mps 742 mmHg 91%
    05:00 +4°C° 0 mm 2 mps 742 mmHg 92%
    06:00 +5°C° 0 mm 2 mps 742 mmHg 91%
    07:00 +5°C° 0 mm 2 mps 742 mmHg 91%
    08:00 +5°C° 0 mm 2 mps 742 mmHg 91%
    09:00 +7°C° 0 mm 2 mps 742 mmHg 85%
    10:00 +9°C° 0 mm 2 mps 742 mmHg 80%
    11:00 +12°C° 0 mm 2 mps 742 mmHg 74%
    12:00 +13°C° 0 mm 2 mps 742 mmHg 71%
    13:00 +14°C° 0 mm 2 mps 741 mmHg 67%
    14:00 +15°C° 0 mm 2 mps 741 mmHg 64%
    15:00 +15°C° 0 mm 2 mps 741 mmHg 68%
    16:00 +14°C° 0 mm 2 mps 741 mmHg 71%
    17:00 +14°C° 0 mm 2 mps 741 mmHg 74%
    18:00 +12°C° 0 mm 3 mps 741 mmHg 79%
    19:00 +10°C° 0 mm 3 mps 741 mmHg 85%
    20:00 +9°C° 0 mm 3 mps 741 mmHg 90%
    21:00 +8°C° 0 mm 3 mps 741 mmHg 90%
    22:00 +8°C° 0 mm 3 mps 741 mmHg 91%
    23:00 +8°C° 0 mm 3 mps 740 mmHg 92%
    Show more